User: anonymous   Login
Location: Unspecified
(0.0000°N, 0.0000°E)
Time: 20:16:25
(UTC+00:00)
Language:

STARLINK-11495 [DTC] - Orbit

View from above orbital plane
View from above orbital plane
View from above satellite
View from above satellite

Ground track
Ground track

The orbit is defined by the following mean orbital elements,

1 62275U          26145.48866332 +.00000000 +00000-0 +18125-2 0 00002
2 62275  42.9979 314.3259 0002229 277.5458  82.5156 15.70913767    07
Epoch (UTC): 25 May 2026 11:43:40
Eccentricity: 0.0002229
inclination: 42.9979°
perigee height: 355 km
apogee height: 358 km
right ascension of ascending node: 314.3259°
argument of perigee: 277.5458°
revolutions per day: 15.70913767
mean anomaly at epoch: 82.5156°

The dashed part of the orbit path shows where the satellite is in the earth's shadow,  

DLR